{"data":{"norad_id":63994,"epoch":"2026-09-19T12:12:48.734496Z","epoch_age_seconds":229211,"freshness":"STALE","line1":"1 63994U 25101A   26262.50889739  .00012149  00000+0  45008-3 0  9993","line2":"2 63994  43.0005 343.6953 0001567 274.4449  85.6224 15.27594174 76624","mean_motion":15.27594174,"eccentricity":0.0001567,"inclination_deg":43.0005,"raan_deg":343.6953,"arg_perigee_deg":274.4449,"mean_anomaly_deg":85.6224,"bstar":0.00045008,"rev_number":7662,"period_min":94.265874046205,"perigee_km":481.93151310212,"apogee_km":484.08179552339,"semimajor_km":6861.1436543128,"source":"CELESTRAK","updated_at":"2026-09-21T09:00:35.179576Z"}}